Location: Taukkyan
(23.1052°N, 94.0030°E)
Time: 11:57:16
(UTC+00:00)

Cosmos 1461 - Pass Details

Date: 06 July 2020
Orbit: 502 x 664 km, 65.0° (Epoch: 14 August)

Event Time Altitude Azimuth Distance (km) Brightness Sun altitude
Rises 13:50:45 0° 349° (N) 2,991 7.3 -16.2°
Reaches altitude 10° 13:53:19 10° 0° (N) 2,081 6.2 -16.7°
Maximum altitude 13:57:28 30° 61° (ENE) 1,192 4.3 -17.5°
Enters shadow 13:58:35 27° 87° (E) 1,276 4.2 -17.7°
